Location: Caltech
(34.1382°N, 118.1253°W)
Time: 00:53:34
(UTC-07:00)

Cosmos 2084 - Visible Passes

Search period start: 03 July 2015 00:00
Search period end: 13 July 2015 00:00
Orbit: 539 x 653 km, 62.8° (Epoch: 02 July)

Date Brightness Start Highest point End Pass type
(mag) Time Alt. Az. Time Alt. Az. Time Alt. Az.
03 Jul 4.9 21:45:19 10° N 21:49:09 28° NE 21:50:47 23° E visible
03 Jul 5.4 23:24:52 10° WNW 23:27:26 24° W 23:27:26 24° W visible
04 Jul 4.0 21:54:49 10° NNW 21:59:11 50° NE 22:00:27 38° ESE visible
04 Jul 6.1 23:35:55 10° WNW 23:37:06 13° W 23:37:06 13° W visible
05 Jul 3.5 22:04:34 10° NNW 22:09:05 85° WSW 22:10:10 52° SSE visible
06 Jul 5.4 20:35:54 10° N 20:39:05 19° NE 20:42:27 10° E visible
06 Jul 4.4 22:14:37 10° NW 22:18:55 43° WSW 22:19:57 37° SSW visible
07 Jul 4.6 20:45:09 10° NNW 20:49:11 33° NE 20:53:08 11° ESE visible
07 Jul 5.3 22:25:05 10° WNW 22:28:41 23° WSW 22:29:48 21° SW visible
08 Jul 3.8 20:54:43 10° NNW 20:59:10 61° ENE 21:03:03 14° SE visible
08 Jul 6.1 22:36:39 10° W 22:38:26 12° WSW 22:39:42 10° SW visible
09 Jul 3.8 21:04:33 10° NW 21:09:02 70° WSW 21:13:02 14° SSE visible
10 Jul 4.9 21:14:42 10° NW 21:18:51 35° WSW 21:23:02 10° S visible
11 Jul 5.9 21:25:22 10° WNW 21:28:36 19° WSW 21:31:44 10° SSW visible
